INTELSAT 23 (IS-23)     
1 38867U 12057A   19266.41592751 -.00000295  00000-0  00000+0 0  9991
2 38867   0.0001 345.8199 0001585 213.6144 259.3194  1.00271366 25459
BREEZE-M R/B            
1 38868U 12057B   19266.01021556 -.00000162  00000-0  00000+0 0  9991
2 38868   5.7083  72.0981 0538323 357.1246 255.1471  0.88385108 22401
BREEZE-M DEB [TANK]     
1 38869U 12057C   19266.20283661 -.00000243  00000-0 -70953-3 0  9999
2 38869  45.8704 171.5147 7115055 356.9882   0.3945  2.29570172 57205